CDT,Max TemperatureF,Mean TemperatureF,Min TemperatureF,Max Dew PointF,MeanDew PointF,Min DewpointF,Max Humidity, Mean Humidity, Min Humidity, Max Sea Level PressureIn, Mean Sea Level PressureIn, Min Sea Level PressureIn, Max VisibilityMiles, Mean VisibilityMiles, Min VisibilityMiles, Max Wind SpeedMPH, Mean Wind SpeedMPH, Max Gust SpeedMPH,PrecipitationIn, CloudCover, Events, WindDirDegrees
2012-10-1,80,73,66,72,68,64,94,86,69,29.72,29.61,29.55,10,9,2,13,6,23,0.55,6,,152
2012-10-2,68,60,53,64,59,52,94,85,68,30.03,29.83,29.66,10,9,0,12,4,,0.01,7,,230
2012-10-3,71,62,53,59,54,52,100,83,57,30.22,30.13,30.02,10,6,0,7,1,,0.00,4,,140
2012-10-4,80,66,51,63,55,48,100,78,44,30.31,30.25,30.20,10,8,0,6,0,,0.00,2,,131
2012-10-5,80,66,53,61,56,50,94,76,39,30.23,30.13,30.03,10,9,5,8,1,,0.00,0,,187
2012-10-6,71,63,55,63,55,50,94,84,69,30.09,30.04,30.01,10,9,3,12,3,,0.02,4,,340
2012-10-7,60,54,48,50,45,39,88,72,45,30.17,30.11,30.03,10,10,10,14,5,21,0.02,4,,354
2012-10-8,57,52,46,48,46,43,88,79,67,30.20,30.15,30.09,10,10,8,13,4,18,0.03,7,,26
2012-10-9,68,56,44,52,47,43,94,77,46,30.17,30.11,30.05,10,9,0,8,1,,0.00,2,,165
2012-10-10,75,60,44,57,51,43,94,79,53,30.21,30.15,30.08,10,9,0,13,2,17,0.00,4,,316
2012-10-11,73,58,44,57,49,41,94,74,41,30.32,30.25,30.20,10,9,0,8,1,,0.00,2,,58
2012-10-12,78,66,55,64,59,52,94,81,54,30.33,30.25,30.21,10,10,5,13,2,20,0.07,4,,356
2012-10-13,80,70,60,61,59,54,94,71,51,30.33,30.25,30.19,10,10,9,10,6,17,0.00,4,,113
2012-10-14,77,70,62,63,60,54,88,74,60,30.23,30.11,29.95,10,10,10,12,5,16,0.00,5,,177
2012-10-15,75,62,46,64,53,41,94,70,31,30.01,29.97,29.93,10,9,1,14,5,20,0.01,2,Thunderstorm,309
2012-10-16,71,56,42,54,47,39,94,73,38,30.04,29.97,29.89,10,10,3,7,1,,0.00,0,,251
2012-10-17,75,60,46,54,48,43,94,64,31,29.95,29.87,29.74,10,10,6,14,3,18,0.00,0,,165
2012-10-18,75,60,46,63,51,39,94,69,29,29.87,29.81,29.74,10,10,5,15,6,22,0.38,4,Thunderstorm,225
2012-10-19,55,45,39,43,40,37,93,83,63,29.86,29.84,29.83,10,10,10,6,3,,0.00,0,,243
2012-10-20,,,,,,,,,,,,,,,,,,,,,,
2012-10-21,,,,,,,,,,,,,,,,,,,,,,
2012-10-22,,,,,,,,,,,,,,,,,,,,,,
2012-10-23,78,61,44,54,51,41,94,67,36,30.21,30.14,30.09,10,10,7,6,1,,0.00,0,,170
2012-10-24,80,62,44,57,51,43,94,75,42,30.20,30.13,30.06,10,10,5,8,1,,0.00,0,,116
2012-10-25,80,64,48,59,53,45,94,75,39,30.11,30.06,30.01,10,9,0,8,1,,0.00,1,,103
2012-10-26,82,68,53,63,56,50,94,75,42,30.07,30.02,29.92,10,10,7,6,1,,0.00,1,,78
2012-10-27,55,52,50,45,44,43,82,74,67,30.00,29.95,29.91,10,10,8,13,9,20,0.00,8,,341
2012-10-28,57,52,48,45,39,28,87,63,41,30.01,29.93,29.89,10,10,9,16,10,23,0.00,6,,341
2012-10-29,55,47,39,32,26,19,70,45,30,30.05,29.97,29.90,10,10,10,18,9,26,0.00,0,,318
2012-10-30,55,48,42,27,24,21,53,40,26,29.90,29.85,29.81,10,10,10,21,12,29,0.00,0,,289
2012-10-31,64,48,33,34,29,25,81,52,24,29.96,29.92,29.88,10,10,10,15,6,21,0.00,0,,276